Orbital Elements at Epoch 2459200.5 (2020-Dec-17.0) TDB
Reference: JPL 18 (heliocentric ecliptic J2000)
Element | Value | Uncertainty (1-sigma) | Units |
e | .1708233324833154 | 3.8602e-08 | |
a | 2.233186607886959 | 8.3206e-09 | au |
q | 1.851706229470598 | 8.442e-08 | au |
i | 4.03368009274366 | 3.8369e-06 | deg |
node | 66.16869937541752 | 5.7445e-05 | deg |
peri | 339.257593363473 | 5.8757e-05 | deg |
M | 159.8498265663051 | 1.3265e-05 | deg |
tp | 2458659.252856052028 (2019-Jun-24.75285605) | 4.3471e-05 | TDB |
period | 1218.950160952769 3.34 | 6.8125e-06 1.865e-08 | d yr |
n | .2953361109683212 | 1.6506e-09 | deg/d |
Q | 2.614666986303321 | 9.7419e-09 | au |
|
| | Orbit Determination Parameters
Additional Information
|